Davenport, IA

2:39 PM CDT on August 18, 2017 (GMT -0500)
Davenport Municipal

Weather History for KDVN - October, 2012

Change the Weather History Date:

Monday, October 8, 2012

  Actual Average Record
Temperature  
Mean Temperature 48 °F 54 °F  
Max Temperature 62 °F 66 °F 86 °F (1949)
Min Temperature 34 °F 43 °F 27 °F (2000)
Degree Days  
Heating Degree Days 17 11  
Month to date heating degree days 128 81  
Since 1 July heating degree days 305 216  
Cooling Degree Days 0 1  
Month to date cooling degree days 0 8  
Year to date cooling degree days 1106 782  
Moisture  
Dew Point 30 °F    
Average Humidity 51    
Maximum Humidity 70    
Minimum Humidity 32    
Precipitation  
Precipitation 0.00 in 0.09 in 1.40 in (1977)
Month to date precipitation 0.07 0.71  
Year to date precipitation 23.89 29.59  
Snow  
Snow 0.00 in - - ()
Month to date snowfall 0.0  
Since 1 July snowfall 0.0  
Since 1 September snowfall 0.0  
Snow Depth 0.00 in    
Sea Level Pressure  
Sea Level Pressure 30.04 in    
Wind  
Wind Speed 15 mph (SSW)    
Max Wind Speed 25 mph    
Max Gust Speed 36 mph    
Visibility 10 miles    
Events      
T = Trace of Precipitation, MM = Missing Value Source: NWS Daily Summary

Daily Weather History Graph

Daily Weather History Graph

Search for Another Location

Airport or City:

Trip Planner

Search our weather history database for the weather conditions in past years. The results will help you decide how hot, cold, wet, or windy it might be!

Date:

Astronomy

Oct. 08, 2012 Rise Set
Actual Time 7:07 AM CDT 6:31 PM CDT
Civil Twilight 6:39 AM CDT 6:59 PM CDT
Nautical Twilight 6:07 AM CDT 7:31 PM CDT
Astronomical Twilight 5:35 AM CDT 8:03 PM CDT
Moon No Moon Rise 2:25 PM CDT (10/8)
Length of Visible Light 12h 19m
Length of Day
11h 24m
Last Quarter, 46% of the Moon is Illuminated
Oct 8
Last Quarter
Oct 15
New
Oct 21
First Quarter
Oct 29
Full
Nov 6
Last Quarter

Hourly Weather History & Observations

Time (CDT) Temp. Windchill Dew Point Humidity Pressure Visibility Wind Dir Wind Speed Gust Speed Precip Events Conditions
12:52 AM 34.0 °F 27.2 °F 23.0 °F 64% 30.14 in 10.0 mi South 8.1 mph - N/A   Clear
1:52 AM 34.0 °F 26.6 °F 24.1 °F 67% 30.13 in 10.0 mi South 9.2 mph - N/A   Clear
2:52 AM 35.1 °F 27.9 °F 25.0 °F 67% 30.11 in 10.0 mi South 9.2 mph - N/A   Clear
3:52 AM 35.1 °F 28.6 °F 26.1 °F 70% 30.10 in 10.0 mi South 8.1 mph - N/A   Clear
4:52 AM 36.0 °F 28.5 °F 27.0 °F 70% 30.10 in 10.0 mi South 10.4 mph - N/A   Clear
5:52 AM 37.0 °F 29.8 °F 28.0 °F 70% 30.10 in 10.0 mi South 10.4 mph - N/A   Clear
6:52 AM 37.0 °F 29.8 °F 28.0 °F 70% 30.10 in 10.0 mi SSW 10.4 mph - N/A   Clear
7:52 AM 37.9 °F 30.5 °F 28.9 °F 70% 30.11 in 10.0 mi South 11.5 mph - N/A   Clear
8:52 AM 42.1 °F 35.7 °F 30.0 °F 62% 30.11 in 10.0 mi South 11.5 mph - N/A   Clear
9:52 AM 48.9 °F - 32.0 °F 52% 30.11 in 10.0 mi South 11.5 mph - N/A   Clear
10:52 AM 53.1 °F - 32.0 °F 45% 30.08 in 10.0 mi SSW 20.7 mph 26.5 mph N/A   Clear
11:52 AM 57.0 °F - 33.1 °F 40% 30.06 in 10.0 mi SSW 16.1 mph 27.6 mph N/A   Clear
12:52 PM 57.9 °F - 33.1 °F 39% 30.04 in 10.0 mi SSW 19.6 mph 28.8 mph N/A   Clear
1:52 PM 60.1 °F - 32.0 °F 35% 30.01 in 10.0 mi SSW 23.0 mph 35.7 mph N/A   Clear
2:52 PM 61.0 °F - 30.9 °F 32% 29.98 in 10.0 mi SSW 24.2 mph 29.9 mph N/A   Clear
3:52 PM 61.0 °F - 30.0 °F 31% 29.96 in 10.0 mi SW 17.3 mph 25.3 mph N/A   Clear
4:52 PM 60.1 °F - 30.0 °F 32% 29.96 in 10.0 mi SSW 19.6 mph 25.3 mph N/A   Clear
5:52 PM 57.9 °F - 30.0 °F 35% 29.97 in 10.0 mi SSW 16.1 mph 21.9 mph N/A   Clear
7:52 PM 54.0 °F - 30.9 °F 41% 29.97 in 10.0 mi South 13.8 mph - N/A   Clear
8:52 PM 53.1 °F - 32.0 °F 45% 29.97 in 10.0 mi South 16.1 mph 24.2 mph N/A   Clear
9:52 PM 53.1 °F - 32.0 °F 45% 29.97 in 10.0 mi South 15.0 mph - N/A   Clear
10:52 PM 52.0 °F - 32.0 °F 47% 29.96 in 10.0 mi South 18.4 mph 25.3 mph N/A   Partly Cloudy
11:52 PM 51.1 °F - 33.1 °F 50% 29.94 in 10.0 mi SSW 16.1 mph - N/A   Scattered Clouds